THY5656 LTFE-LTCK

Flight info

Callsign THY5656
Flight time 1h 47m
Altitude 37000
Route KAVAK UT283 BALSU UN135 AYT UR55 MUT/N0457F380 UW74 ADA/N0456F370 UW74 GAZ UW716 DYB UW73 BAYIR
Aircraft B738/M-SDE2E3FGHIRWXY/LB1

Departure

Time 2026-04-25 14:02
Airport Milas Bodrum International Airport (LTFE)

Arrival

Time 2026-04-25 15:50
Airport Muş Airport (LTCK)
Time Latitude Longitude Altitude Speed Heading
2026-04-25 13:54 37.24423 27.67649 29 ft 0 kts 197°
2026-04-25 13:56 37.24424 27.67650 29 ft 0 kts 197°
2026-04-25 13:56 37.24427 27.67651 29 ft 0 kts 197°
2026-04-25 13:56 37.24429 27.67652 29 ft 0 kts 197°
2026-04-25 13:57 37.24432 27.67653 29 ft 0 kts 197°
2026-04-25 13:57 37.24434 27.67653 29 ft 1 kts 197°
2026-04-25 13:57 37.24441 27.67656 29 ft 1 kts 197°
2026-04-25 13:57 37.24447 27.67658 29 ft 1 kts 197°
2026-04-25 13:58 37.24452 27.67661 29 ft 1 kts 186°
2026-04-25 13:58 37.24458 27.67661 29 ft 1 kts 158°
2026-04-25 13:58 37.24464 27.67658 29 ft 1 kts 146°
2026-04-25 13:58 37.24470 27.67652 29 ft 1 kts 125°
2026-04-25 13:59 37.24473 27.67647 29 ft 0 kts 110°
2026-04-25 13:59 37.24472 27.67650 29 ft 2 kts 110°
2026-04-25 13:59 37.24467 27.67727 29 ft 14 kts 92°
2026-04-25 13:59 37.24453 27.67851 29 ft 14 kts 105°
2026-04-25 14:00 37.24436 27.67930 29 ft 14 kts 104°
2026-04-25 14:00 37.24480 27.68051 29 ft 13 kts 20°
2026-04-25 14:00 37.24566 27.68084 28 ft 13 kts 17°
2026-04-25 14:00 37.24650 27.68117 29 ft 12 kts 17°
2026-04-25 14:01 37.24729 27.68107 29 ft 12 kts 313°
2026-04-25 14:01 37.24762 27.68000 30 ft 25 kts 285°
2026-04-25 14:01 37.24873 27.67474 31 ft 98 kts 288°
2026-04-25 14:01 37.25132 27.66399 36 ft 156 kts 284°
2026-04-25 14:02 37.25434 27.64996 476 ft 172 kts 284°
2026-04-25 14:02 37.25729 27.63470 1038 ft 192 kts 284°
2026-04-25 14:02 37.26027 27.61749 1451 ft 208 kts 282°
2026-04-25 14:02 37.26116 27.61148 1672 ft 208 kts 281°
2026-04-25 14:03 37.26438 27.58076 2440 ft 222 kts 276°
2026-04-25 14:03 37.26563 27.56141 2922 ft 224 kts 275°
2026-04-25 14:03 37.26341 27.54290 3771 ft 208 kts 242°
2026-04-25 14:03 37.25417 27.53024 4556 ft 200 kts 208°
2026-04-25 14:04 37.24033 27.52603 4760 ft 216 kts 174°
2026-04-25 14:04 37.22579 27.53263 4931 ft 233 kts 147°
2026-04-25 14:04 37.21280 27.54544 5271 ft 241 kts 140°
2026-04-25 14:04 37.20000 27.55917 5743 ft 243 kts 140°
2026-04-25 14:05 37.18713 27.57302 6235 ft 245 kts 141°
2026-04-25 14:05 37.17390 27.58714 6488 ft 261 kts 141°
2026-04-25 14:05 37.15975 27.60214 6956 ft 270 kts 141°
2026-04-25 14:05 37.14536 27.61734 7784 ft 270 kts 142°
2026-04-25 14:06 37.13092 27.63251 8584 ft 273 kts 142°
2026-04-25 14:06 37.11625 27.64786 9401 ft 276 kts 142°
2026-04-25 14:06 37.10141 27.66337 10213 ft 280 kts 142°
2026-04-25 14:06 37.08606 27.67966 10552 ft 303 kts 137°
2026-04-25 14:07 37.07308 27.70178 10731 ft 330 kts 117°
2026-04-25 14:07 37.06582 27.72964 10922 ft 353 kts 105°
2026-04-25 14:07 37.06020 27.76025 11346 ft 366 kts 106°
2026-04-25 14:07 37.05453 27.79139 12124 ft 368 kts 103°
2026-04-25 14:08 37.04977 27.82302 12920 ft 371 kts 102°
2026-04-25 14:08 37.04489 27.85490 13713 ft 376 kts 102°
2026-04-25 14:08 37.03967 27.88715 14454 ft 379 kts 103°
2026-04-25 14:08 37.03422 27.91951 15226 ft 381 kts 103°
2026-04-25 14:09 37.02859 27.95208 15956 ft 384 kts 103°
2026-04-25 14:09 37.02286 27.98480 16654 ft 387 kts 103°
2026-04-25 14:09 37.01712 28.01744 17326 ft 391 kts 103°
2026-04-25 14:09 37.01514 28.02868 17553 ft 392 kts 103°
2026-04-25 14:10 37.00532 28.08444 18585 ft 399 kts 103°
2026-04-25 14:10 36.99931 28.11846 19128 ft 402 kts 103°
2026-04-25 14:10 36.99324 28.15276 19700 ft 405 kts 103°
2026-04-25 14:10 36.98712 28.18730 20295 ft 408 kts 103°
2026-04-25 14:11 36.98147 28.22212 20839 ft 412 kts 98°
2026-04-25 14:11 36.98246 28.25808 21338 ft 419 kts 80°
2026-04-25 14:11 36.99160 28.29277 21909 ft 424 kts 65°
2026-04-25 14:11 37.00736 28.32363 22461 ft 429 kts 56°
2026-04-25 14:12 37.02496 28.35379 22972 ft 432 kts 56°
2026-04-25 14:12 37.04244 28.38458 23392 ft 437 kts 57°
2026-04-25 14:12 37.06078 28.41522 23713 ft 444 kts 51°
2026-04-25 14:12 37.08294 28.44238 24191 ft 446 kts 43°
2026-04-25 14:13 37.10676 28.46740 24686 ft 447 kts 42°
2026-04-25 14:13 37.13078 28.49225 25081 ft 450 kts 42°
2026-04-25 14:13 37.15498 28.51741 25450 ft 453 kts 42°
2026-04-25 14:13 37.17884 28.54249 25838 ft 455 kts 42°
2026-04-25 14:14 37.20305 28.56817 26225 ft 457 kts 42°
2026-04-25 14:14 37.22732 28.59406 26608 ft 459 kts 43°
2026-04-25 14:14 37.25165 28.62009 26946 ft 461 kts 42°
2026-04-25 14:14 37.27608 28.64626 27304 ft 462 kts 42°
2026-04-25 14:15 37.30059 28.67250 27645 ft 464 kts 42°
2026-04-25 14:15 37.30853 28.68100 27730 ft 465 kts 42°
2026-04-25 14:15 37.34567 28.73038 28210 ft 465 kts 59°
2026-04-25 14:15 37.36046 28.76640 28584 ft 463 kts 70°
2026-04-25 14:16 37.36915 28.80448 29055 ft 459 kts 80°
2026-04-25 14:16 37.37472 28.84388 29602 ft 456 kts 81°
2026-04-25 14:16 37.38005 28.88308 30060 ft 454 kts 81°
2026-04-25 14:16 37.38542 28.92221 30419 ft 454 kts 81°
2026-04-25 14:17 37.39094 28.96136 30693 ft 455 kts 81°
2026-04-25 14:17 37.39660 29.00076 30873 ft 459 kts 81°
2026-04-25 14:17 37.40236 29.04025 31220 ft 458 kts 81°
2026-04-25 14:17 37.40805 29.07900 31641 ft 456 kts 81°
2026-04-25 14:18 37.41379 29.11817 32029 ft 455 kts 81°
2026-04-25 14:18 37.41949 29.15722 32353 ft 455 kts 81°
2026-04-25 14:18 37.42521 29.19647 32677 ft 455 kts 81°
2026-04-25 14:18 37.43088 29.23559 33043 ft 454 kts 81°
2026-04-25 14:19 37.43653 29.27465 33351 ft 455 kts 81°
2026-04-25 14:19 37.44218 29.31376 33568 ft 457 kts 81°
2026-04-25 14:19 37.44778 29.35265 33876 ft 456 kts 81°
2026-04-25 14:19 37.45162 29.39210 34193 ft 453 kts 91°
2026-04-25 14:20 37.44914 29.43152 34412 ft 452 kts 102°
2026-04-25 14:20 37.42811 29.50561 34833 ft 451 kts 117°
2026-04-25 14:20 37.41402 29.54094 35024 ft 453 kts 118°
2026-04-25 14:21 37.39980 29.57648 35093 ft 458 kts 118°
2026-04-25 14:21 37.38559 29.61255 35240 ft 461 kts 117°
2026-04-25 14:21 37.37159 29.64868 35539 ft 459 kts 117°
2026-04-25 14:21 37.35785 29.68437 35819 ft 459 kts 117°
2026-04-25 14:22 37.34396 29.72045 36039 ft 460 kts 117°
2026-04-25 14:22 37.32972 29.75648 36226 ft 461 kts 118°
2026-04-25 14:22 37.31508 29.79229 36448 ft 461 kts 119°
2026-04-25 14:22 37.30032 29.82798 36680 ft 461 kts 119°
2026-04-25 14:23 37.28554 29.86375 36905 ft 461 kts 120°
2026-04-25 14:23 37.27077 29.89962 37008 ft 464 kts 119°
2026-04-25 14:23 37.25598 29.93565 37006 ft 466 kts 119°
2026-04-25 14:24 37.22665 30.00720 36996 ft 462 kts 119°
2026-04-25 14:24 37.19851 30.07943 36994 ft 460 kts 118°
2026-04-25 14:25 37.17097 30.15176 36984 ft 459 kts 118°
2026-04-25 14:25 37.14336 30.22377 36984 ft 458 kts 118°
2026-04-25 14:26 37.11560 30.29559 36998 ft 458 kts 118°
2026-04-25 14:26 37.08795 30.36685 36989 ft 459 kts 118°
2026-04-25 14:27 37.06000 30.43873 36977 ft 461 kts 118°
2026-04-25 14:27 37.03186 30.51094 36991 ft 462 kts 118°
2026-04-25 14:28 37.00371 30.58305 36957 ft 465 kts 118°
2026-04-25 14:28 36.97524 30.65582 36974 ft 467 kts 118°
2026-04-25 14:29 36.94677 30.72846 36958 ft 463 kts 118°
2026-04-25 14:29 36.92303 30.80289 36960 ft 464 kts 105°
2026-04-25 14:30 36.91613 30.88272 36975 ft 466 kts 94°
2026-04-25 14:30 36.91236 31.00407 36948 ft 467 kts 95°
2026-04-25 14:31 36.90924 31.08517 36956 ft 468 kts 95°
2026-04-25 14:31 36.90582 31.16649 36964 ft 470 kts 95°
2026-04-25 14:32 36.90233 31.24775 36954 ft 472 kts 96°
2026-04-25 14:32 36.89878 31.32984 36966 ft 475 kts 96°
2026-04-25 14:33 36.89518 31.41246 36965 ft 477 kts 95°
2026-04-25 14:33 36.89621 31.49552 36986 ft 479 kts 89°
2026-04-25 14:34 36.89975 31.57809 36957 ft 479 kts 90°
2026-04-25 14:34 36.90258 31.66124 36983 ft 479 kts 90°
2026-04-25 14:35 36.90495 31.74438 36996 ft 479 kts 91°
2026-04-25 14:35 36.90421 31.82731 36978 ft 478 kts 94°
2026-04-25 14:36 36.90204 31.90977 37005 ft 478 kts 94°
2026-04-25 14:36 36.90039 31.99280 37013 ft 478 kts 94°
2026-04-25 14:37 36.89845 32.07580 37023 ft 478 kts 94°
2026-04-25 14:37 36.89635 32.15891 37034 ft 479 kts 94°
2026-04-25 14:38 36.89426 32.24138 37030 ft 478 kts 94°
2026-04-25 14:38 36.89211 32.32436 37042 ft 478 kts 94°
2026-04-25 14:39 36.88992 32.40740 37029 ft 478 kts 94°
2026-04-25 14:39 36.88768 32.48982 37035 ft 478 kts 94°
2026-04-25 14:40 36.88537 32.57262 37022 ft 478 kts 94°
2026-04-25 14:40 36.88301 32.65559 37029 ft 478 kts 94°
2026-04-25 14:41 36.88059 32.73843 37033 ft 478 kts 94°
2026-04-25 14:41 36.87812 32.82141 37041 ft 477 kts 94°
2026-04-25 14:42 36.87645 32.87634 37037 ft 478 kts 94°
2026-04-25 14:42 36.87301 32.98690 37023 ft 480 kts 94°
2026-04-25 14:43 36.87036 33.07013 37022 ft 481 kts 94°
2026-04-25 14:43 36.86763 33.15360 37022 ft 482 kts 94°
2026-04-25 14:44 36.86487 33.23681 37017 ft 483 kts 94°
2026-04-25 14:44 36.86323 33.32076 37006 ft 484 kts 90°
2026-04-25 14:45 36.86734 33.40470 37010 ft 485 kts 87°
2026-04-25 14:45 36.87247 33.48862 37022 ft 484 kts 87°
2026-04-25 14:46 36.87701 33.57196 37022 ft 484 kts 88°
2026-04-25 14:46 36.88113 33.65585 37012 ft 484 kts 88°
2026-04-25 14:47 36.88378 33.71190 37016 ft 483 kts 88°
2026-04-25 14:47 36.88900 33.82323 37025 ft 482 kts 88°
2026-04-25 14:48 36.89287 33.90691 37029 ft 483 kts 88°
2026-04-25 14:48 36.89667 33.99009 37023 ft 483 kts 88°
2026-04-25 14:49 36.90043 34.07374 37019 ft 483 kts 88°
2026-04-25 14:49 36.90414 34.15752 37022 ft 483 kts 88°
2026-04-25 14:50 36.90779 34.24142 36994 ft 484 kts 88°
2026-04-25 14:50 36.91136 34.32465 37004 ft 484 kts 88°
2026-04-25 14:51 36.91489 34.40867 37005 ft 484 kts 88°
2026-04-25 14:51 36.91802 34.49281 36955 ft 485 kts 89°
2026-04-25 14:52 36.92092 34.57694 36957 ft 485 kts 89°
2026-04-25 14:52 36.92278 34.63263 36944 ft 485 kts 89°
2026-04-25 14:53 36.92650 34.74474 36916 ft 485 kts 89°
2026-04-25 14:53 36.92926 34.82883 36933 ft 485 kts 89°
2026-04-25 14:54 36.93196 34.91312 36917 ft 485 kts 89°
2026-04-25 14:54 36.93460 34.99728 36899 ft 485 kts 90°
2026-04-25 14:55 36.93716 35.08082 36910 ft 484 kts 90°
2026-04-25 14:55 36.93968 35.16503 36913 ft 484 kts 90°
2026-04-25 14:56 36.94190 35.24919 36902 ft 485 kts 91°
2026-04-25 14:56 36.94290 35.33341 36911 ft 485 kts 91°
2026-04-25 14:57 36.94364 35.41701 36914 ft 485 kts 91°
2026-04-25 14:57 36.94447 35.50135 36911 ft 485 kts 91°
2026-04-25 14:58 36.94534 35.58565 36907 ft 485 kts 91°
2026-04-25 14:58 36.94617 35.66993 36911 ft 485 kts 91°
2026-04-25 14:59 36.94693 35.75359 36910 ft 485 kts 91°
2026-04-25 14:59 36.94763 35.83779 36910 ft 484 kts 92°
2026-04-25 15:00 36.94827 35.92186 36928 ft 484 kts 92°
2026-04-25 15:00 36.94884 36.00599 36936 ft 484 kts 92°
2026-04-25 15:01 36.94928 36.07604 36942 ft 484 kts 92°
2026-04-25 15:01 36.94982 36.17375 36943 ft 484 kts 92°
2026-04-25 15:02 36.95022 36.25795 36937 ft 485 kts 92°
2026-04-25 15:02 36.95057 36.34217 36964 ft 485 kts 92°
2026-04-25 15:03 36.95081 36.41236 36956 ft 485 kts 92°
2026-04-25 15:03 36.95113 36.51046 36962 ft 486 kts 92°
2026-04-25 15:04 36.95166 36.59493 36976 ft 486 kts 92°
2026-04-25 15:04 36.95219 36.67941 36989 ft 486 kts 92°
2026-04-25 15:05 36.95254 36.74969 36967 ft 486 kts 93°
2026-04-25 15:06 36.95311 36.89006 36999 ft 486 kts 92°
2026-04-25 15:06 36.95339 36.96038 37003 ft 487 kts 92°
2026-04-25 15:07 36.95370 37.04499 36996 ft 487 kts 93°
2026-04-25 15:07 36.95395 37.12964 37012 ft 487 kts 93°
2026-04-25 15:08 36.95376 37.22816 37018 ft 487 kts 94°
2026-04-25 15:08 36.95323 37.29862 37012 ft 487 kts 94°
2026-04-25 15:09 36.95264 37.38332 37041 ft 488 kts 94°
2026-04-25 15:09 36.96444 37.50978 37009 ft 495 kts 73°
2026-04-25 15:10 36.99220 37.58880 37021 ft 498 kts 66°
2026-04-25 15:11 37.03531 37.70645 37030 ft 499 kts 67°
2026-04-25 15:11 37.06348 37.78588 37024 ft 499 kts 67°
2026-04-25 15:12 37.10642 37.90490 37032 ft 500 kts 67°
2026-04-25 15:12 37.13020 37.97096 37024 ft 501 kts 67°
2026-04-25 15:13 37.17766 38.10360 37021 ft 502 kts 67°
2026-04-25 15:14 37.20605 38.18365 37031 ft 502 kts 67°
2026-04-25 15:14 37.23420 38.26367 37035 ft 502 kts 67°
2026-04-25 15:15 37.26217 38.34335 37034 ft 502 kts 67°
2026-04-25 15:15 37.29025 38.42350 37035 ft 502 kts 68°
2026-04-25 15:16 37.31833 38.50381 37060 ft 502 kts 67°
2026-04-25 15:16 37.36041 38.62422 37045 ft 502 kts 67°
2026-04-25 15:17 37.40220 38.74406 37062 ft 501 kts 67°
2026-04-25 15:18 37.43004 38.82424 37051 ft 500 kts 68°
2026-04-25 15:18 37.47143 38.94479 37037 ft 500 kts 69°
2026-04-25 15:19 37.49323 39.01202 37061 ft 499 kts 69°
2026-04-25 15:19 37.52359 39.10631 37049 ft 500 kts 69°
2026-04-25 15:20 37.54989 39.18744 37047 ft 501 kts 69°
2026-04-25 15:20 37.57520 39.26917 37057 ft 500 kts 71°
2026-04-25 15:21 37.60044 39.35045 37062 ft 502 kts 69°
2026-04-25 15:21 37.62727 39.43183 37068 ft 502 kts 69°
2026-04-25 15:22 37.65389 39.51339 37084 ft 503 kts 69°
2026-04-25 15:22 37.68019 39.59527 37079 ft 504 kts 69°
2026-04-25 15:23 37.70623 39.67689 37070 ft 505 kts 69°
2026-04-25 15:23 37.73239 39.75908 37077 ft 504 kts 69°
2026-04-25 15:24 37.75851 39.84135 37057 ft 504 kts 69°
2026-04-25 15:24 37.78013 39.90958 37061 ft 503 kts 69°
2026-04-25 15:25 37.79316 39.95079 36626 ft 508 kts 69°
2026-04-25 15:25 37.81045 40.00557 35843 ft 504 kts 69°
2026-04-25 15:25 37.82343 40.04679 35207 ft 504 kts 69°
2026-04-25 15:25 37.83631 40.08772 34756 ft 499 kts 69°
2026-04-25 15:26 37.84908 40.12833 34277 ft 495 kts 70°
2026-04-25 15:26 37.86175 40.16870 33768 ft 491 kts 70°
2026-04-25 15:26 37.87581 40.20790 33237 ft 488 kts 62°
2026-04-25 15:26 37.89412 40.24388 32734 ft 484 kts 52°
2026-04-25 15:27 37.91473 40.27729 32282 ft 479 kts 51°
2026-04-25 15:27 37.93544 40.31014 31806 ft 475 kts 50°
2026-04-25 15:27 37.97587 40.37485 30905 ft 467 kts 51°
2026-04-25 15:28 37.99576 40.40723 30463 ft 464 kts 51°
2026-04-25 15:28 38.01542 40.43946 30002 ft 460 kts 52°
2026-04-25 15:28 38.03487 40.47149 29489 ft 456 kts 52°
2026-04-25 15:28 38.05412 40.50323 29030 ft 451 kts 52°
2026-04-25 15:29 38.07311 40.53455 28561 ft 446 kts 52°
2026-04-25 15:29 38.09168 40.56518 28115 ft 441 kts 52°
2026-04-25 15:29 38.11031 40.59592 27646 ft 437 kts 51°
2026-04-25 15:29 38.12867 40.62637 27302 ft 431 kts 52°
2026-04-25 15:30 38.14660 40.65651 27015 ft 423 kts 52°
2026-04-25 15:30 38.16421 40.68625 26606 ft 420 kts 52°
2026-04-25 15:30 38.18168 40.71576 26173 ft 417 kts 52°
2026-04-25 15:30 38.19903 40.74507 25740 ft 414 kts 52°
2026-04-25 15:31 38.21632 40.77426 25316 ft 411 kts 52°
2026-04-25 15:31 38.23348 40.80325 24886 ft 409 kts 52°
2026-04-25 15:31 38.25043 40.83158 24492 ft 406 kts 51°
2026-04-25 15:31 38.26799 40.85938 24124 ft 402 kts 50°
2026-04-25 15:32 38.28562 40.88686 23719 ft 399 kts 49°
2026-04-25 15:32 38.30293 40.91437 23253 ft 397 kts 51°
2026-04-25 15:32 38.31984 40.94210 22795 ft 394 kts 51°
2026-04-25 15:33 38.35304 40.99707 21918 ft 389 kts 51°
2026-04-25 15:33 38.36947 41.02421 21501 ft 386 kts 51°
2026-04-25 15:33 38.38560 41.05081 21089 ft 383 kts 51°
2026-04-25 15:33 38.40183 41.07753 20669 ft 380 kts 51°
2026-04-25 15:34 38.41794 41.10408 20250 ft 378 kts 51°
2026-04-25 15:34 38.43399 41.13058 19843 ft 376 kts 51°
2026-04-25 15:34 38.44973 41.15701 19447 ft 373 kts 52°
2026-04-25 15:34 38.46000 41.17446 19185 ft 371 kts 52°
2026-04-25 15:35 38.49613 41.23584 18213 ft 368 kts 52°
2026-04-25 15:35 38.51147 41.26188 17760 ft 366 kts 52°
2026-04-25 15:35 38.52652 41.28744 17342 ft 364 kts 52°
2026-04-25 15:36 38.55673 41.33881 16527 ft 358 kts 51°
2026-04-25 15:36 38.57163 41.36408 15932 ft 354 kts 51°
2026-04-25 15:36 38.58625 41.38893 15582 ft 342 kts 52°
2026-04-25 15:37 38.60024 41.41277 15283 ft 331 kts 51°
2026-04-25 15:37 38.61425 41.43614 14686 ft 332 kts 50°
2026-04-25 15:37 38.62841 41.45958 14173 ft 331 kts 50°
2026-04-25 15:37 38.64230 41.48255 13732 ft 325 kts 50°
2026-04-25 15:38 38.65572 41.50471 13499 ft 312 kts 50°
2026-04-25 15:38 38.66880 41.52636 13108 ft 306 kts 50°
2026-04-25 15:38 38.68168 41.54765 12792 ft 297 kts 50°
2026-04-25 15:38 38.69417 41.56851 12348 ft 296 kts 52°
2026-04-25 15:39 38.70676 41.58947 11837 ft 298 kts 51°
2026-04-25 15:39 38.71942 41.61046 11544 ft 297 kts 51°
2026-04-25 15:39 38.73195 41.63126 11316 ft 293 kts 51°
2026-04-25 15:39 38.74451 41.65160 11095 ft 289 kts 44°
2026-04-25 15:40 38.76067 41.66580 10848 ft 279 kts 16°
2026-04-25 15:40 38.77305 41.66915 10703 ft 271 kts 358°
2026-04-25 15:40 38.79585 41.66088 10439 ft 251 kts 320°
2026-04-25 15:40 38.80779 41.64572 10241 ft 236 kts 308°
2026-04-25 15:41 38.81811 41.62989 10041 ft 227 kts 306°
2026-04-25 15:41 38.82797 41.61452 9828 ft 218 kts 306°
2026-04-25 15:41 38.83743 41.59982 9611 ft 210 kts 306°
2026-04-25 15:41 38.84666 41.58541 9439 ft 209 kts 306°
2026-04-25 15:42 38.85584 41.57100 9274 ft 209 kts 304°
2026-04-25 15:42 38.86408 41.55590 9103 ft 210 kts 300°
2026-04-25 15:42 38.87221 41.54009 8949 ft 213 kts 300°
2026-04-25 15:42 38.88028 41.52427 8790 ft 212 kts 300°
2026-04-25 15:43 38.88830 41.50849 8644 ft 211 kts 300°
2026-04-25 15:43 38.89634 41.49268 8537 ft 212 kts 300°
2026-04-25 15:43 38.90352 41.47683 8500 ft 199 kts 285°
2026-04-25 15:43 38.90345 41.45989 8504 ft 192 kts 248°
2026-04-25 15:44 38.89500 41.44685 8512 ft 196 kts 212°
2026-04-25 15:44 38.88215 41.44088 8514 ft 197 kts 198°
2026-04-25 15:44 38.86909 41.43637 8510 ft 197 kts 197°
2026-04-25 15:44 38.85590 41.43193 8496 ft 194 kts 197°
2026-04-25 15:45 38.84286 41.42855 8485 ft 192 kts 183°
2026-04-25 15:45 38.83007 41.43387 8336 ft 202 kts 146°
2026-04-25 15:45 38.82183 41.44816 8137 ft 200 kts 117°
2026-04-25 15:45 38.81808 41.45883 7965 ft 196 kts 118°
2026-04-25 15:46 38.81082 41.47959 7520 ft 187 kts 117°
2026-04-25 15:46 38.80570 41.49453 7230 ft 180 kts 116°
2026-04-25 15:46 38.80090 41.50870 6957 ft 168 kts 117°
2026-04-25 15:46 38.79643 41.52197 6644 ft 162 kts 117°
2026-04-25 15:47 38.79202 41.53510 6378 ft 159 kts 118°
2026-04-25 15:47 38.78763 41.54816 6139 ft 162 kts 118°
2026-04-25 15:47 38.78379 41.56197 5899 ft 167 kts 109°
2026-04-25 15:47 38.78066 41.57619 5606 ft 163 kts 113°
2026-04-25 15:48 38.77642 41.58933 5388 ft 158 kts 117°
2026-04-25 15:48 38.77149 41.60184 5072 ft 158 kts 120°
2026-04-25 15:48 38.76651 41.61418 4778 ft 153 kts 117°
2026-04-25 15:48 38.76175 41.62578 4484 ft 144 kts 127°
2026-04-25 15:49 38.75722 41.63734 4312 ft 144 kts 121°
2026-04-25 15:49 38.75279 41.64848 4180 ft 142 kts 120°
2026-04-25 15:49 38.74885 41.65853 4157 ft 98 kts 117°
2026-04-25 15:49 38.74652 41.66447 4159 ft 65 kts 118°
2026-04-25 15:50 38.74472 41.66920 4154 ft 46 kts 116°
2026-04-25 15:50 38.74349 41.67092 4155 ft 24 kts 198°
2026-04-25 15:50 38.74288 41.66953 4156 ft 19 kts 295°
2026-04-25 15:50 38.74349 41.66806 4155 ft 18 kts 297°
2026-04-25 15:51 38.74418 41.66634 4157 ft 29 kts 296°
2026-04-25 15:51 38.74489 41.66451 4157 ft 40 kts 296°
2026-04-25 15:51 38.74690 41.65933 4159 ft 58 kts 296°
2026-04-25 15:51 38.74884 41.65431 4157 ft 63 kts 296°
2026-04-25 15:52 38.75072 41.64950 4159 ft 58 kts 296°
2026-04-25 15:52 38.75244 41.64510 4154 ft 43 kts 297°
2026-04-25 15:52 38.75383 41.64256 4155 ft 27 kts
2026-04-25 15:52 38.75525 41.64394 4157 ft 25 kts 30°
2026-04-25 15:53 38.75676 41.64492 4157 ft 24 kts 25°
2026-04-25 15:53 38.75820 41.64581 4157 ft 23 kts 26°
2026-04-25 15:53 38.75900 41.64640 4157 ft 0 kts 28°